Погода в Каргасоке

Погода в Каргасоке : погода сейчас, прогноз погоды и архив. Всё, что Вы хотите узнать о погоде в Каргасоке!

Хотите узнать прогноз погоды в Каргасоке? Тогда Вам сюда: Погода в Каргасоке

Поиск расширенной информации на нашем сайте:

Полезная информация: Варикозно расширенные вены.

Другие новости

Новости СМИ2

Главная страница сайта

Новости сайта

03.07.2017

Напоминаем, что на нашем специализированном сайте Метеоцентр.Азия вы можете получить высокодетализированные автоматические прогнозы погоды по пунктам России, СНГ и мира в авиационном формате (включающие направление и скорость ветра, видимость, явления погоды, количество и форму облачности, нижнюю и верхнюю границу облачности).

Рекомендуем: Вытянуть вмятину без покраски как убрать вмятину без покраски.

Погода в Каргасоке - сегодня

Время (UTC), дата Ветер
(°,м/с) 
Видим.   Явления Облачность Т
(°С)
Тd
(°С)
f(%) Тe
(°С)
Pmin
(гПа)
dP
(гПа)
Po
(мм)
O2
(г/м3)
Тmin Tmax R s Состояние
почвы
06 16.10.17 320 (СЗ) 20000 м  {ливн. осадки}  8/8 270 м верхняя 
[St|Cc]
+1.5 -0.1 89 +1  1015.1  1.5  756  303           
09 16.10.17 320 (СЗ) 20000 м    ясно 
+5.4 -3.2 54 +4  1017.1  2.1  758  300           
12 16.10.17 290 (З) 20000 м    8/8 1500 м 
[Sc]
+2.6 -2.9 67 +3  1020  2.8  760  304    +5.4  0.1     
15 16.10.17 340 (С) 20000 м    8/8 500 м 
[Sc]
+0.4 -2.2 83 1022.8  2.7  762  307           
18 16.10.17 320 (СЗ) 20000 м    10/10 400 м 
[Sc]
+0.4 -2.2 83 1024.7  1.9  763  307           
21 16.10.17 350 (С) 20000 м    10/10 400 м 
[Sc]
-1.2 -3.9 82 -2  1026.6  1.8  764  310           
00 17.10.17 340 (С) 20000 м    10/10 480 м 
[Sc]
-1.8 -5 79 -1  1027.7  1.1  765  311  -2         
03 17.10.17 020 (С) 20000 м    10/10 720 м 
[Sc]
-1.4 -5.3 75 -1  1028.8  1.1  766  311           
06 17.10.17 тихо ()   20000 м    10/10 660 м 
[Sc]
-0.8 -5.2 72 -1  1029.2  0.4  766  310           
09 17.10.17 050 (СВ) 20000 м    10/10 660 м 
[Sc]
-0.3 -4.8 72 1028.4  -0.7  766  309           
12 17.10.17 090 (В) 20000 м    10/10 630 м 
[Sc]
-0.7 -4.6 75 -2  1027.9  -0.6  765  310    -0.3       
15 17.10.17 110 (В) 20000 м    10/10 540 м 
[Sc]
-1.6 -4.3 82 -3  1027.1  -0.8  765  310           
18 17.10.17 110 (В) 20000 м    10/10 300 м 
[Sc]
-2.5 -4.4 87 -4  1025.3  -1.8  763  311           
21 17.10.17 120 (ЮВ) 20000 м    10/10 240 м 
[St]
-2.9 -4.3 90 -4  1024  -1.3  762  311           
00 18.10.17 120 (ЮВ) 20000 м    10/10 180 м 
[St]
-3.5 -4.5 93 -5  1022.8  -1.2  762  311  -3.5         
03 18.10.17 110 (В) 20000 м    10/10 150 м 
[St]
-3.9 -4.6 95 -5  1021.9  -0.9  761  312  -3.9         
06 18.10.17 110 (В) 20000 м    10/10 180 м 
[St]
-3.1 -4.2 92 -5  1020.6  -1.3  760  310           
09 18.10.17 110 (В) 20000 м    9/9 420 м 
[Sc]
-2.2 -4.7 83 -4  1019.5  -1  759  309           
12 18.10.17 090 (В) 20000 м    ясно 
-3.3 -5.5 85 -4  1018.5  -1.1  758  310    -1.8       
15 18.10.17 090 (В) 20000 м    ясно 
-5.5 -6.6 92 -7  1017.3  -1.2  757  312           
18 18.10.17 090 (В) 20000 м    ясно 
-6.6 -7.5 93 -6  1016.2  -1.1  757  313           
21 18.10.17 100 (В) 20000 м    10/10 150 м 
[St]
-4 -4.7 95 -6  1015.2  -0.9  756  310           
00 19.10.17 130 (ЮВ) 20000 м    10/10 150 м 
[St]
-2.6 -3.6 93 -4  1014.3  -0.9  755  308  -6.7         
03 19.10.17 110 (В) 20000 м    10/10 360 м 
[St]
-0.1 -2.2 86 -2  1012.6  -1.6  754  304           
06 19.10.17 130 (ЮВ) 20000 м    9/9 450 м 
[Sc]
+1.6 -1.9 78 1011.8  -0.7  754  302           
Время (UTC), дата Ветер
(°,м/с) 
Видим.   Явления Облачность Т
(°С)
Тd
(°С)
f(%) Тe
(°С)
Pmin
(гПа)
dP
(гПа)
Po
(мм)
O2
(г/м3)
Тmin Tmax R s Состояние
почвы

Для получения пояснительной информации подведите курсор к названию столбца.

ПОГОДА в Каргасоке - архив

Всё, что Вы хотите узнать о погоде в Каргасоке - удобно и подробно!

Выберите нужную дату (начиная с 1 января 2015* года) и нажмите кнопку "Найти".
Будут отображены архивные сводки погоды по пункту Каргасок, начиная с указанной даты.


Отображать данные в формате CSV (для использования в таблицах Excel)


Внимание! Наш архив погоды предназначен исключительно для личного некоммерческого использования в познавательных целях. Если Вам необходимы официальные справки о состоянии погоды (для производственных, юридических, коммерческих и т.п. целей), обращайтесь в органы Росгидромета.

*Примечание: данная дата относится к архиву по метеостанциям СССР (Россия, СНГ, Балтия).
Архив по метеостанциям Зарубежной Европы и Азии (кроме Китая) хранится 10 дней, по другим регионам земного шара (Китай, Африка, Америка, Австралия, Океания) - 1 день.

Каргасок - район местоположения метеостанции


Название, широта, долгота, высота метеостанции:
Каргасок 59.1°ш. 80.9°д. 59 м над ур. моря [Российская Федерация]

Дополнительная информация

В oтличие oт бoльшинства пoгoдных сайтoв мы публикуем пoдрoбную метеoинфoрмацию в детальнoм прoфессиoнальнoм фoрмате.

Характеристики температуры и влажнoсти вoздуха измеряются на высoте 2 м в тени вдали oт зданий и деревьев.
Скoрoсть ветра измеряется на высoте 10 м (на урoвне рoста челoвека скoрoсть ветра ниже в 1.5-2 раза). Если метеoстанция нахoдится в гoрoде или в лесу, тo скoрoсть ветра занижена на 2-4 м/с пo сравнению с oткрытым местoм. Скoрoсть ветра над акватoриями крупных рек и oзёр, а также на вершинах хoлмoв на 2-5 м/с выше, чем в oбычных услoвиях.
Атмoсфернoе давление в разных тoчках местнoсти мoжет значительнo oтличаться oт давления на метеoстанции, в зависимoсти oт услoвий рельефа (при пoдъёме на 10 м давление пoнижается примернo на 1 мм рт.ст.).